| time (UTC) | temp C | wind direction | speed KPH | gust KPH | rain 1hr cm | rain 24hr cm | rain mn cm | humidity % | barometer mb |
| 20260507080028 | 5 | 255 | 1.6 | 6.4 | 0.00 | 0.00 | 0.00 | 73 | 1013.4 |
| 20260507075508 | 5 | 254 | 1.6 | 6.4 | 0.00 | 0.00 | 0.00 | 73 | 1013.5 |
| 20260507075011 | 5 | 254 | 3.2 | 6.4 | 0.00 | 0.00 | 0.00 | 73 | 1013.5 |
| 20260507074522 | 5 | 265 | 3.2 | 11.3 | 0.00 | 0.00 | 0.00 | 74 | 1013.5 |
| 20260507074009 | 5 | 242 | 3.2 | 11.3 | 0.00 | 0.00 | 0.00 | 73 | 1013.6 |
| 20260507073508 | 5 | 205 | 0.0 | 6.4 | 0.00 | 0.00 | 0.00 | 73 | 1013.5 |
| 20260507073025 | 5 | 229 | 1.6 | 4.8 | 0.00 | 0.00 | 0.00 | 73 | 1013.6 |
| 20260507072507 | 5 | 246 | 0.0 | 4.8 | 0.00 | 0.00 | 0.00 | 73 | 1013.5 |
| 20260507072009 | 5 | 248 | 1.6 | 8.0 | 0.00 | 0.00 | 0.00 | 72 | 1013.5 |
| 20260507071527 | 5 | 247 | 1.6 | 8.0 | 0.00 | 0.00 | 0.00 | 72 | 1013.5 |
| 20260507071013 | 5 | 248 | 1.6 | 6.4 | 0.00 | 0.00 | 0.00 | 72 | 1013.6 |
| 20260507070508 | 5 | 231 | 1.6 | 6.4 | 0.00 | 0.00 | 0.00 | 72 | 1013.6 |
| 20260507070026 | 5 | 256 | 3.2 | 6.4 | 0.00 | 0.00 | 0.00 | 72 | 1013.6 |
| 20260507065503 | 6 | 269 | 3.2 | 6.4 | 0.00 | 0.00 | 0.00 | 71 | 1013.6 |
| 20260507065006 | 6 | 256 | 0.0 | 4.8 | 0.00 | 0.00 | 0.00 | 72 | 1013.7 |
| 20260507064517 | 6 | 259 | 1.6 | 4.8 | 0.00 | 0.00 | 0.00 | 72 | 1013.6 |
| 20260507064007 | 6 | 251 | 0.0 | 4.8 | 0.00 | 0.00 | 0.00 | 72 | 1013.7 |
| 20260507063511 | 6 | 250 | 1.6 | 6.4 | 0.00 | 0.00 | 0.00 | 73 | 1013.8 |
| 20260507063024 | 5 | 259 | 3.2 | 6.4 | 0.00 | 0.00 | 0.00 | 73 | 1013.9 |
| 20260507062510 | 5 | 246 | 1.6 | 6.4 | 0.00 | 0.00 | 0.00 | 75 | 1013.9 |
| 20260507062004 | 5 | 232 | 0.0 | 3.2 | 0.00 | 0.00 | 0.00 | 75 | 1013.9 |
| 20260507061505 | 5 | 232 | 1.6 | 4.8 | 0.00 | 0.00 | 0.00 | 76 | 1013.9 |
| 20260507061007 | 5 | 232 | 1.6 | 4.8 | 0.00 | 0.00 | 0.00 | 76 | 1014.0 |
| 20260507060502 | 5 | 235 | 0.0 | 4.8 | 0.00 | 0.00 | 0.00 | 77 | 1014.0 |
| 20260507060012 | 5 | 259 | 0.0 | 0.0 | 0.00 | 0.00 | 0.00 | 77 | 1013.9 |
| 20260507055504 | 5 | 259 | 0.0 | 0.0 | 0.00 | 0.00 | 0.00 | 77 | 1014.0 |
| 20260507055004 | 5 | 259 | 0.0 | 0.0 | 0.00 | 0.00 | 0.00 | 77 | 1014.0 |
| 20260507054516 | 5 | 259 | 0.0 | 0.0 | 0.00 | 0.00 | 0.00 | 78 | 1013.8 |
| 20260507054007 | 5 | 260 | 0.0 | 0.0 | 0.00 | 0.00 | 0.00 | 77 | 1013.8 |
| 20260507053509 | 5 | 259 | 0.0 | 0.0 | 0.00 | 0.00 | 0.00 | 77 | 1014.0 |
| 20260507053023 | 5 | 260 | 0.0 | 0.0 | 0.00 | 0.00 | 0.00 | 76 | 1014.0 |
| 20260507052508 | 5 | 259 | 0.0 | 0.0 | 0.00 | 0.00 | 0.00 | 76 | 1014.0 |
| 20260507052012 | 5 | 259 | 0.0 | 0.0 | 0.00 | 0.00 | 0.00 | 75 | 1014.0 |
| 20260507051525 | 5 | 259 | 0.0 | 0.0 | 0.00 | 0.00 | 0.00 | 74 | 1014.0 |
| 20260507051010 | 6 | 259 | 0.0 | 0.0 | 0.00 | 0.00 | 0.00 | 74 | 1013.9 |
| 20260507050503 | 6 | 259 | 0.0 | 0.0 | 0.00 | 0.00 | 0.00 | 73 | 1013.9 |
| 20260507050012 | 6 | 259 | 0.0 | 0.0 | 0.00 | 0.00 | 0.00 | 73 | 1013.9 |
| 20260507045503 | 6 | 259 | 0.0 | 0.0 | 0.00 | 0.00 | 0.00 | 73 | 1013.9 |
| 20260507045006 | 6 | 259 | 0.0 | 0.0 | 0.00 | 0.00 | 0.00 | 73 | 1013.9 |
| 20260507044527 | 6 | 259 | 0.0 | 0.0 | 0.00 | 0.00 | 0.00 | 72 | 1013.9 |
| 20260507044008 | 7 | 259 | 0.0 | 0.0 | 0.00 | 0.00 | 0.00 | 73 | 1013.9 |
| 20260507043506 | 7 | 259 | 0.0 | 0.0 | 0.00 | 0.00 | 0.00 | 72 | 1013.9 |
| 20260507043018 | 7 | 259 | 0.0 | 0.0 | 0.00 | 0.00 | 0.00 | 72 | 1013.9 |
| 20260507042507 | 7 | 259 | 0.0 | 0.0 | 0.00 | 0.00 | 0.00 | 70 | 1013.9 |
| 20260507042009 | 7 | 259 | 0.0 | 0.0 | 0.00 | 0.00 | 0.00 | 70 | 1014.0 |
| 20260507041523 | 7 | 259 | 0.0 | 0.0 | 0.00 | 0.00 | 0.00 | 70 | 1014.0 |
| 20260507041007 | 7 | 259 | 0.0 | 1.6 | 0.00 | 0.00 | 0.00 | 70 | 1013.9 |
| 20260507040511 | 7 | 259 | 0.0 | 1.6 | 0.00 | 0.00 | 0.00 | 70 | 1014.0 |
| 20260507040032 | 7 | 260 | 0.0 | 0.0 | 0.00 | 0.00 | 0.00 | 70 | 1014.0 |
| 20260507035510 | 7 | 259 | 0.0 | 0.0 | 0.00 | 0.00 | 0.00 | 70 | 1014.0 |
| 20260507035005 | 7 | 259 | 0.0 | 0.0 | 0.00 | 0.00 | 0.00 | 69 | 1014.1 |
| 20260507034510 | 7 | 259 | 0.0 | 0.0 | 0.00 | 0.00 | 0.00 | 68 | 1014.1 |
| 20260507034003 | 7 | 259 | 0.0 | 0.0 | 0.00 | 0.00 | 0.00 | 68 | 1014.0 |
| 20260507033505 | 7 | 259 | 0.0 | 0.0 | 0.00 | 0.00 | 0.00 | 67 | 1014.0 |
| 20260507033018 | 8 | 259 | 0.0 | 0.0 | 0.00 | 0.00 | 0.00 | 66 | 1014.0 |
| 20260507032504 | 8 | 259 | 0.0 | 0.0 | 0.00 | 0.00 | 0.00 | 66 | 1014.0 |
| 20260507032010 | 8 | 259 | 0.0 | 0.0 | 0.00 | 0.00 | 0.00 | 65 | 1014.1 |
| 20260507031522 | 8 | 259 | 0.0 | 0.0 | 0.00 | 0.00 | 0.00 | 65 | 1014.1 |
| 20260507031010 | 8 | 259 | 0.0 | 0.0 | 0.00 | 0.00 | 0.00 | 64 | 1014.2 |
| 20260507030509 | 8 | 259 | 0.0 | 0.0 | 0.00 | 0.00 | 0.00 | 63 | 1014.2 |
| 20260507030023 | 8 | 259 | 0.0 | 0.0 | 0.00 | 0.00 | 0.00 | 63 | 1014.2 |
| 20260507025506 | 8 | 259 | 0.0 | 0.0 | 0.00 | 0.00 | 0.00 | 61 | 1014.1 |
| 20260507025011 | 8 | 259 | 0.0 | 0.0 | 0.00 | 0.00 | 0.00 | 60 | 1014.1 |
| 20260507024529 | 8 | 259 | 0.0 | 0.0 | 0.00 | 0.00 | 0.00 | 56 | 1014.1 |
| 20260507024009 | 8 | 260 | 0.0 | 0.0 | 0.00 | 0.00 | 0.00 | 56 | 1014.2 |
| 20260507023505 | 8 | 259 | 0.0 | 0.0 | 0.00 | 0.00 | 0.00 | 57 | 1014.2 |
| 20260507023015 | 8 | 259 | 0.0 | 0.0 | 0.00 | 0.00 | 0.00 | 56 | 1014.2 |
| 20260507022504 | 8 | 259 | 0.0 | 0.0 | 0.00 | 0.00 | 0.00 | 56 | 1014.1 |
| 20260507022009 | 8 | 259 | 0.0 | 0.0 | 0.00 | 0.00 | 0.00 | 55 | 1014.2 |
| 20260507021522 | 8 | 259 | 0.0 | 0.0 | 0.00 | 0.00 | 0.00 | 55 | 1014.1 |
| 20260507021009 | 9 | 260 | 0.0 | 1.6 | 0.00 | 0.00 | 0.00 | 54 | 1014.2 |
| 20260507020508 | 9 | 259 | 0.0 | 3.2 | 0.00 | 0.00 | 0.00 | 54 | 1014.0 |
| 20260507020030 | 9 | 259 | 0.0 | 3.2 | 0.00 | 0.00 | 0.00 | 53 | 1014.1 |
| 20260507015508 | 9 | 259 | 0.0 | 3.2 | 0.00 | 0.00 | 0.00 | 53 | 1013.9 |
| 20260507015011 | 9 | 259 | 0.0 | 3.2 | 0.00 | 0.00 | 0.00 | 53 | 1013.9 |
| 20260507014529 | 9 | 259 | 0.0 | 4.8 | 0.00 | 0.00 | 0.00 | 52 | 1013.9 |
| 20260507014014 | 9 | 259 | 1.6 | 4.8 | 0.00 | 0.00 | 0.00 | 51 | 1013.9 |
| 20260507013510 | 9 | 259 | 0.0 | 4.8 | 0.00 | 0.00 | 0.00 | 51 | 1013.9 |
| 20260507013030 | 9 | 259 | 1.6 | 6.4 | 0.00 | 0.00 | 0.00 | 50 | 1013.9 |
| 20260507012509 | 9 | 248 | 1.6 | 6.4 | 0.00 | 0.00 | 0.00 | 49 | 1013.9 |
| 20260507012004 | 9 | 273 | 1.6 | 4.8 | 0.00 | 0.00 | 0.00 | 50 | 1013.8 |
| 20260507011520 | 9 | 259 | 0.0 | 6.4 | 0.00 | 0.00 | 0.00 | 49 | 1013.8 |
| 20260507011010 | 9 | 286 | 1.6 | 6.4 | 0.00 | 0.00 | 0.00 | 49 | 1013.7 |
| 20260507010507 | 10 | 279 | 0.0 | 4.8 | 0.00 | 0.00 | 0.00 | 49 | 1013.7 |
| 20260507010027 | 10 | 289 | 1.6 | 4.8 | 0.00 | 0.00 | 0.00 | 49 | 1013.6 |
| 20260507005509 | 10 | 277 | 1.6 | 6.4 | 0.00 | 0.00 | 0.00 | 48 | 1013.6 |
| 20260507005009 | 10 | 292 | 0.0 | 6.4 | 0.00 | 0.00 | 0.00 | 48 | 1013.6 |
| 20260507004530 | 10 | 270 | 1.6 | 11.3 | 0.00 | 0.00 | 0.00 | 47 | 1013.6 |
| 20260507004010 | 10 | 256 | 4.8 | 11.3 | 0.00 | 0.00 | 0.00 | 48 | 1013.7 |
| 20260507003508 | 10 | 277 | 1.6 | 8.0 | 0.00 | 0.00 | 0.00 | 47 | 1013.6 |
| 20260507003029 | 10 | 242 | 1.6 | 6.4 | 0.00 | 0.00 | 0.00 | 47 | 1013.6 |
| 20260507002512 | 10 | 292 | 1.6 | 9.7 | 0.00 | 0.00 | 0.00 | 47 | 1013.6 |
| 20260507002014 | 10 | 267 | 3.2 | 9.7 | 0.00 | 0.00 | 0.00 | 46 | 1013.5 |
| 20260507001535 | 10 | 272 | 1.6 | 16.1 | 0.00 | 0.00 | 0.00 | 45 | 1013.5 |
| 20260507001007 | 10 | 254 | 4.8 | 16.1 | 0.00 | 0.00 | 0.00 | 45 | 1013.5 |
| 20260507000506 | 10 | 280 | 3.2 | 9.7 | 0.00 | 0.00 | 0.00 | 46 | 1013.4 |
| 20260507000019 | 10 | 263 | 0.0 | 4.8 | 0.00 | 0.00 | 0.00 | 46 | 1013.4 |
| 20260506235507 | 10 | 265 | 1.6 | 6.4 | 0.00 | 0.00 | 0.00 | 45 | 1013.3 |
| 20260506235008 | 10 | 265 | 0.0 | 9.7 | 0.00 | 0.00 | 0.00 | 45 | 1013.3 |
| 20260506234524 | 10 | 258 | 3.2 | 9.7 | 0.00 | 0.00 | 0.00 | 44 | 1013.4 |
| 20260506234009 | 10 | 249 | 4.8 | 9.7 | 0.00 | 0.00 | 0.00 | 43 | 1013.4 |
| 20260506233510 | 10 | 281 | 1.6 | 6.4 | 0.00 | 0.00 | 0.00 | 45 | 1013.5 |
| 20260506233029 | 10 | 290 | 1.6 | 12.9 | 0.00 | 0.00 | 0.00 | 44 | 1013.5 |
| 20260506232511 | 10 | 259 | 3.2 | 14.5 | 0.00 | 0.00 | 0.00 | 45 | 1013.5 |
| 20260506232011 | 10 | 286 | 4.8 | 14.5 | 0.00 | 0.00 | 0.00 | 42 | 1013.5 |
| 20260506231529 | 10 | 267 | 4.8 | 12.9 | 0.00 | 0.00 | 0.00 | 42 | 1013.5 |
| 20260506231011 | 10 | 265 | 4.8 | 17.7 | 0.00 | 0.00 | 0.00 | 42 | 1013.5 |
| 20260506230509 | 11 | 253 | 6.4 | 22.5 | 0.00 | 0.00 | 0.00 | 42 | 1013.4 |
| 20260506230032 | 11 | 274 | 11.3 | 22.5 | 0.00 | 0.00 | 0.00 | 41 | 1013.4 |
| 20260506225507 | 11 | 264 | 6.4 | 22.5 | 0.00 | 0.00 | 0.00 | 43 | 1013.4 |
| 20260506225007 | 11 | 244 | 6.4 | 24.1 | 0.00 | 0.00 | 0.00 | 41 | 1013.3 |
| 20260506224524 | 11 | 285 | 12.9 | 24.1 | 0.00 | 0.00 | 0.00 | 40 | 1013.4 |
| 20260506224007 | 11 | 245 | 11.3 | 22.5 | 0.00 | 0.00 | 0.00 | 41 | 1013.4 |
| 20260506223508 | 11 | 255 | 11.3 | 22.5 | 0.00 | 0.00 | 0.00 | 40 | 1013.4 |
| 20260506223026 | 11 | 270 | 8.0 | 22.5 | 0.00 | 0.00 | 0.00 | 43 | 1013.5 |
| 20260506222511 | 11 | 255 | 9.7 | 22.5 | 0.00 | 0.00 | 0.00 | 42 | 1013.4 |
| 20260506222009 | 11 | 250 | 9.7 | 17.7 | 0.00 | 0.00 | 0.00 | 41 | 1013.5 |
| 20260506221528 | 11 | 291 | 8.0 | 20.9 | 0.00 | 0.00 | 0.00 | 41 | 1013.3 |
| 20260506221009 | 11 | 317 | 9.7 | 22.5 | 0.00 | 0.00 | 0.00 | 41 | 1013.3 |
| 20260506220511 | 11 | 315 | 9.7 | 22.5 | 0.00 | 0.00 | 0.00 | 40 | 1013.2 |
| 20260506220034 | 11 | 296 | 14.5 | 24.1 | 0.00 | 0.00 | 0.00 | 40 | 1013.2 |
| 20260506215507 | 11 | 238 | 9.7 | 24.1 | 0.00 | 0.00 | 0.00 | 41 | 1013.2 |
| 20260506215009 | 11 | 313 | 11.3 | 22.5 | 0.00 | 0.00 | 0.00 | 41 | 1013.3 |
| 20260506214522 | 11 | 287 | 12.9 | 24.1 | 0.00 | 0.00 | 0.00 | 41 | 1013.3 |
| 20260506214010 | 11 | 294 | 12.9 | 25.7 | 0.00 | 0.00 | 0.00 | 41 | 1013.3 |
| 20260506213511 | 11 | 260 | 11.3 | 25.7 | 0.00 | 0.00 | 0.00 | 42 | 1013.3 |
| 20260506213023 | 11 | 294 | 12.9 | 20.9 | 0.00 | 0.00 | 0.00 | 40 | 1013.2 |
| 20260506212508 | 11 | 282 | 9.7 | 19.3 | 0.00 | 0.00 | 0.00 | 41 | 1013.2 |
| 20260506212016 | 11 | 264 | 9.7 | 25.7 | 0.00 | 0.00 | 0.00 | 42 | 1013.2 |
| 20260506211525 | 11 | 238 | 11.3 | 25.7 | 0.00 | 0.00 | 0.00 | 41 | 1013.2 |
| 20260506211010 | 11 | 307 | 12.9 | 24.1 | 0.00 | 0.00 | 0.00 | 40 | 1013.1 |
| 20260506210510 | 12 | 292 | 12.9 | 27.4 | 0.00 | 0.00 | 0.00 | 41 | 1013.1 |
| 20260506210028 | 12 | 244 | 9.7 | 27.4 | 0.00 | 0.00 | 0.00 | 40 | 1013.1 |
| 20260506205509 | 12 | 232 | 9.7 | 24.1 | 0.00 | 0.00 | 0.00 | 42 | 1013.1 |
| 20260506205012 | 12 | 274 | 9.7 | 27.4 | 0.00 | 0.00 | 0.00 | 41 | 1013.1 |
| 20260506204520 | 12 | 277 | 12.9 | 27.4 | 0.00 | 0.00 | 0.00 | 40 | 1013.0 |
| 20260506204009 | 12 | 293 | 11.3 | 29.0 | 0.00 | 0.00 | 0.00 | 42 | 1013.0 |
| 20260506203508 | 12 | 281 | 12.9 | 29.0 | 0.00 | 0.00 | 0.00 | 42 | 1013.1 |
| 20260506203028 | 12 | 227 | 12.9 | 25.7 | 0.00 | 0.00 | 0.00 | 41 | 1013.0 |
| 20260506202506 | 12 | 298 | 11.3 | 24.1 | 0.00 | 0.00 | 0.00 | 40 | 1013.3 |
| 20260506202014 | 11 | 270 | 6.4 | 20.9 | 0.00 | 0.00 | 0.00 | 43 | 1013.3 |
| 20260506201526 | 11 | 271 | 12.9 | 20.9 | 0.00 | 0.00 | 0.00 | 42 | 1013.3 |
| 20260506201012 | 11 | 276 | 12.9 | 25.7 | 0.00 | 0.00 | 0.00 | 42 | 1013.4 |
| 20260506200513 | 12 | 249 | 6.4 | 25.7 | 0.00 | 0.00 | 0.00 | 40 | 1013.4 |
| 20260506200027 | 12 | 301 | 11.3 | 20.9 | 0.00 | 0.00 | 0.00 | 41 | 1013.4 |
| 20260506195509 | 12 | 280 | 11.3 | 22.5 | 0.00 | 0.00 | 0.00 | 39 | 1013.4 |
| 20260506195010 | 12 | 251 | 12.9 | 22.5 | 0.00 | 0.00 | 0.00 | 40 | 1013.3 |
| 20260506194526 | 12 | 268 | 12.9 | 20.9 | 0.00 | 0.00 | 0.00 | 41 | 1013.3 |
| 20260506194009 | 11 | 263 | 11.3 | 20.9 | 0.00 | 0.00 | 0.00 | 43 | 1013.4 |
| 20260506193507 | 11 | 246 | 11.3 | 22.5 | 0.00 | 0.00 | 0.00 | 39 | 1013.4 |
| 20260506193021 | 11 | 273 | 12.9 | 22.5 | 0.00 | 0.00 | 0.00 | 39 | 1013.5 |
| 20260506192510 | 12 | 236 | 6.4 | 22.5 | 0.00 | 0.00 | 0.00 | 41 | 1013.4 |
| 20260506192011 | 12 | 290 | 14.5 | 22.5 | 0.00 | 0.00 | 0.00 | 42 | 1013.7 |
| 20260506191534 | 12 | 236 | 12.9 | 22.5 | 0.00 | 0.00 | 0.00 | 44 | 1013.6 |
| 20260506191007 | 12 | 309 | 8.0 | 20.9 | 0.00 | 0.00 | 0.00 | 43 | 1013.6 |
| 20260506190509 | 12 | 49 | 9.7 | 20.9 | 0.00 | 0.00 | 0.00 | 41 | 1013.6 |
| 20260506190027 | 11 | 242 | 6.4 | 20.9 | 0.00 | 0.00 | 0.00 | 42 | 1013.5 |
| 20260506185507 | 11 | 275 | 9.7 | 20.9 | 0.00 | 0.00 | 0.00 | 41 | 1013.6 |
| 20260506185003 | 11 | 340 | 11.3 | 19.3 | 0.00 | 0.00 | 0.00 | 42 | 1013.6 |
| 20260506184526 | 11 | 267 | 6.4 | 20.9 | 0.00 | 0.00 | 0.00 | 43 | 1013.7 |
| 20260506184006 | 11 | 265 | 9.7 | 20.9 | 0.00 | 0.00 | 0.00 | 42 | 1013.8 |
| 20260506183508 | 11 | 229 | 9.7 | 20.9 | 0.00 | 0.00 | 0.00 | 40 | 1013.7 |
| 20260506183024 | 11 | 275 | 12.9 | 24.1 | 0.00 | 0.00 | 0.00 | 40 | 1013.7 |
| 20260506182507 | 11 | 276 | 12.9 | 24.1 | 0.00 | 0.00 | 0.00 | 41 | 1013.7 |
| 20260506182007 | 11 | 242 | 12.9 | 24.1 | 0.00 | 0.00 | 0.00 | 40 | 1013.6 |
| 20260506181504 | 11 | 275 | 8.0 | 27.4 | 0.00 | 0.00 | 0.00 | 40 | 1013.5 |
| 20260506181004 | 11 | 297 | 9.7 | 27.4 | 0.00 | 0.00 | 0.00 | 41 | 1013.3 |
| 20260506180504 | 11 | 257 | 9.7 | 17.7 | 0.00 | 0.00 | 0.00 | 41 | 1013.4 |
| 20260506180007 | 11 | 212 | 4.8 | 20.9 | 0.00 | 0.00 | 0.00 | 38 | 1013.4 |
| 20260506175506 | 11 | 287 | 12.9 | 20.9 | 0.00 | 0.00 | 0.00 | 39 | 1013.4 |
| 20260506175002 | 11 | 320 | 8.0 | 17.7 | 0.00 | 0.00 | 0.00 | 39 | 1013.4 |
| 20260506174514 | 11 | 274 | 8.0 | 16.1 | 0.00 | 0.00 | 0.00 | 43 | 1013.5 |
| 20260506174006 | 11 | 244 | 6.4 | 16.1 | 0.00 | 0.00 | 0.00 | 41 | 1013.4 |
| 20260506173505 | 11 | 281 | 9.7 | 20.9 | 0.00 | 0.00 | 0.00 | 41 | 1013.4 |
| 20260506173018 | 11 | 265 | 8.0 | 20.9 | 0.00 | 0.00 | 0.00 | 39 | 1013.5 |
| 20260506172507 | 11 | 286 | 12.9 | 20.9 | 0.00 | 0.00 | 0.00 | 40 | 1013.6 |
| 20260506172009 | 11 | 261 | 4.8 | 16.1 | 0.00 | 0.00 | 0.00 | 42 | 1013.5 |
| 20260506171529 | 11 | 314 | 8.0 | 19.3 | 0.00 | 0.00 | 0.00 | 40 | 1013.5 |
| 20260506171006 | 11 | 293 | 8.0 | 25.7 | 0.00 | 0.00 | 0.00 | 42 | 1013.6 |
| 20260506170509 | 10 | 271 | 12.9 | 25.7 | 0.00 | 0.00 | 0.00 | 42 | 1013.7 |
| 20260506170007 | 10 | 234 | 11.3 | 22.5 | 0.00 | 0.00 | 0.00 | 39 | 1013.6 |
| 20260506165504 | 10 | 286 | 9.7 | 22.5 | 0.00 | 0.00 | 0.00 | 38 | 1013.8 |
| 20260506165003 | 11 | 271 | 8.0 | 20.9 | 0.00 | 0.00 | 0.00 | 39 | 1013.8 |
| 20260506164512 | 10 | 248 | 8.0 | 19.3 | 0.00 | 0.00 | 0.00 | 41 | 1013.8 |
| 20260506164009 | 10 | 264 | 9.7 | 19.3 | 0.00 | 0.00 | 0.00 | 41 | 1013.9 |
| 20260506163512 | 10 | 278 | 9.7 | 17.7 | 0.00 | 0.00 | 0.00 | 40 | 1014.0 |
| 20260506163016 | 10 | 17 | 4.8 | 17.7 | 0.00 | 0.00 | 0.00 | 46 | 1013.9 |
| 20260506162507 | 10 | 289 | 11.3 | 17.7 | 0.00 | 0.00 | 0.00 | 44 | 1013.9 |
| 20260506162013 | 10 | 284 | 6.4 | 17.7 | 0.00 | 0.00 | 0.00 | 44 | 1013.8 |
| 20260506161521 | 10 | 257 | 9.7 | 17.7 | 0.00 | 0.00 | 0.00 | 44 | 1013.9 |
| 20260506161007 | 10 | 308 | 9.7 | 16.1 | 0.00 | 0.00 | 0.00 | 42 | 1013.8 |
| 20260506160509 | 10 | 232 | 8.0 | 16.1 | 0.00 | 0.03 | 0.00 | 44 | 1014.0 |
| 20260506160030 | 9 | 230 | 4.8 | 16.1 | 0.00 | 0.03 | 0.00 | 41 | 1013.8 |
| 20260506155509 | 9 | 332 | 3.2 | 20.9 | 0.00 | 0.03 | 0.00 | 43 | 1013.7 |
| 20260506155010 | 9 | 309 | 9.7 | 20.9 | 0.00 | 0.03 | 0.00 | 41 | 1013.8 |
| 20260506154513 | 10 | 304 | 8.0 | 17.7 | 0.00 | 0.03 | 0.00 | 43 | 1013.7 |
| 20260506154004 | 10 | 303 | 4.8 | 22.5 | 0.00 | 0.03 | 0.00 | 43 | 1013.5 |
| 20260506153505 | 10 | 96 | 8.0 | 22.5 | 0.00 | 0.03 | 0.00 | 42 | 1013.6 |
| 20260506153017 | 10 | 317 | 8.0 | 22.5 | 0.00 | 0.03 | 0.00 | 42 | 1013.7 |
| 20260506152505 | 10 | 317 | 9.7 | 22.5 | 0.00 | 0.03 | 0.00 | 40 | 1013.8 |
| 20260506152005 | 10 | 296 | 12.9 | 27.4 | 0.00 | 0.03 | 0.00 | 40 | 1013.6 |
| 20260506151532 | 10 | 306 | 3.2 | 27.4 | 0.00 | 0.03 | 0.00 | 44 | 1013.5 |
| 20260506151009 | 10 | 285 | 14.5 | 25.7 | 0.00 | 0.03 | 0.00 | 41 | 1013.5 |
| 20260506150507 | 9 | 312 | 4.8 | 17.7 | 0.00 | 0.03 | 0.00 | 45 | 1013.5 |
| 20260506150026 | 9 | 270 | 9.7 | 22.5 | 0.00 | 0.03 | 0.00 | 45 | 1013.5 |
| 20260506145514 | 9 | 327 | 12.9 | 22.5 | 0.00 | 0.03 | 0.00 | 43 | 1013.5 |
| 20260506145010 | 9 | 331 | 4.8 | 20.9 | 0.00 | 0.03 | 0.00 | 44 | 1013.5 |
| 20260506144528 | 9 | 324 | 6.4 | 20.9 | 0.00 | 0.03 | 0.00 | 45 | 1013.4 |
| 20260506144015 | 9 | 301 | 8.0 | 19.3 | 0.00 | 0.03 | 0.00 | 44 | 1013.4 |
| 20260506143508 | 10 | 306 | 8.0 | 19.3 | 0.00 | 0.03 | 0.00 | 44 | 1013.4 |
| 20260506143012 | 10 | 312 | 4.8 | 17.7 | 0.00 | 0.03 | 0.00 | 44 | 1013.3 |
| 20260506142505 | 9 | 276 | 3.2 | 16.1 | 0.00 | 0.03 | 0.00 | 47 | 1013.3 |
| 20260506142008 | 9 | 305 | 9.7 | 19.3 | 0.00 | 0.03 | 0.00 | 45 | 1013.2 |
| 20260506141518 | 8 | 302 | 3.2 | 20.9 | 0.00 | 0.03 | 0.00 | 46 | 1013.1 |
| 20260506141006 | 8 | 315 | 6.4 | 20.9 | 0.00 | 0.03 | 0.00 | 44 | 1013.1 |
| 20260506140507 | 8 | 257 | 9.7 | 17.7 | 0.00 | 0.03 | 0.00 | 43 | 1013.1 |
| 20260506140027 | 8 | 281 | 4.8 | 20.9 | 0.00 | 0.03 | 0.00 | 45 | 1013.2 |
| 20260506135507 | 8 | 289 | 12.9 | 22.5 | 0.00 | 0.03 | 0.00 | 42 | 1013.0 |
| 20260506135009 | 9 | 334 | 9.7 | 24.1 | 0.00 | 0.03 | 0.00 | 42 | 1012.9 |
| 20260506134526 | 8 | 339 | 4.8 | 24.1 | 0.00 | 0.03 | 0.00 | 46 | 1012.7 |
| 20260506134014 | 8 | 290 | 12.9 | 22.5 | 0.00 | 0.03 | 0.00 | 44 | 1012.7 |
| 20260506133511 | 8 | 9 | 11.3 | 24.1 | 0.00 | 0.03 | 0.00 | 45 | 1012.7 |
| 20260506133041 | 8 | 328 | 6.4 | 24.1 | 0.00 | 0.03 | 0.00 | 48 | 1012.5 |
| 20260506132510 | 8 | 250 | 4.8 | 19.3 | 0.00 | 0.03 | 0.00 | 49 | 1012.5 |
| 20260506132007 | 8 | 297 | 8.0 | 19.3 | 0.00 | 0.03 | 0.00 | 50 | 1012.4 |
| 20260506131517 | 7 | 336 | 11.3 | 17.7 | 0.00 | 0.03 | 0.00 | 51 | 1012.5 |
| 20260506131006 | 7 | 309 | 9.7 | 19.3 | 0.00 | 0.03 | 0.00 | 50 | 1012.5 |
| 20260506130506 | 7 | 311 | 8.0 | 19.3 | 0.00 | 0.03 | 0.00 | 51 | 1012.5 |
| 20260506130020 | 7 | 321 | 8.0 | 20.9 | 0.00 | 0.03 | 0.00 | 52 | 1012.7 |
| 20260506125505 | 7 | 284 | 6.4 | 20.9 | 0.00 | 0.03 | 0.00 | 53 | 1012.6 |
| 20260506125007 | 7 | 273 | 6.4 | 17.7 | 0.00 | 0.03 | 0.00 | 54 | 1012.6 |
| 20260506124524 | 7 | 329 | 9.7 | 16.1 | 0.00 | 0.03 | 0.00 | 55 | 1012.5 |
| 20260506124010 | 7 | 301 | 8.0 | 16.1 | 0.00 | 0.03 | 0.00 | 55 | 1012.4 |
| 20260506123511 | 7 | 313 | 6.4 | 14.5 | 0.00 | 0.03 | 0.00 | 55 | 1012.4 |
| 20260506123028 | 7 | 328 | 4.8 | 14.5 | 0.00 | 0.03 | 0.00 | 56 | 1012.2 |
| 20260506122507 | 6 | 5 | 6.4 | 16.1 | 0.00 | 0.03 | 0.00 | 57 | 1012.2 |
| 20260506122011 | 6 | 299 | 3.2 | 16.1 | 0.00 | 0.03 | 0.00 | 60 | 1012.1 |
| 20260506121530 | 6 | 309 | 4.8 | 12.9 | 0.00 | 0.03 | 0.00 | 59 | 1012.1 |
| 20260506121012 | 6 | 322 | 6.4 | 12.9 | 0.00 | 0.03 | 0.00 | 59 | 1012.0 |
| 20260506120507 | 6 | 350 | 4.8 | 12.9 | 0.00 | 0.03 | 0.00 | 61 | 1011.8 |
| 20260506120034 | 6 | 313 | 4.8 | 12.9 | 0.00 | 0.03 | 0.00 | 62 | 1011.9 |
| 20260506115507 | 6 | 314 | 4.8 | 11.3 | 0.00 | 0.03 | 0.00 | 63 | 1011.8 |
| 20260506115006 | 5 | 286 | 4.8 | 12.9 | 0.00 | 0.03 | 0.00 | 64 | 1011.6 |
| 20260506114521 | 5 | 313 | 6.4 | 12.9 | 0.00 | 0.03 | 0.00 | 64 | 1011.6 |
| 20260506114007 | 5 | 292 | 3.2 | 11.3 | 0.00 | 0.03 | 0.00 | 65 | 1011.5 |
| 20260506113508 | 5 | 311 | 3.2 | 14.5 | 0.00 | 0.03 | 0.00 | 65 | 1011.3 |
| 20260506113027 | 5 | 316 | 3.2 | 14.5 | 0.00 | 0.03 | 0.00 | 65 | 1011.1 |
| 20260506112511 | 5 | 319 | 4.8 | 11.3 | 0.00 | 0.03 | 0.00 | 66 | 1011.1 |
| 20260506112011 | 5 | 313 | 3.2 | 8.0 | 0.00 | 0.03 | 0.00 | 66 | 1011.2 |
| 20260506111528 | 5 | 307 | 1.6 | 8.0 | 0.00 | 0.03 | 0.00 | 67 | 1011.1 |
| 20260506111010 | 5 | 277 | 3.2 | 6.4 | 0.00 | 0.03 | 0.00 | 67 | 1011.3 |
| 20260506110513 | 5 | 287 | 3.2 | 6.4 | 0.00 | 0.03 | 0.00 | 67 | 1011.3 |
| 20260506110028 | 5 | 291 | 0.0 | 6.4 | 0.00 | 0.03 | 0.00 | 67 | 1011.2 |
| 20260506105511 | 5 | 304 | 3.2 | 6.4 | 0.00 | 0.03 | 0.00 | 67 | 1011.1 |
| 20260506105007 | 5 | 298 | 0.0 | 0.0 | 0.00 | 0.03 | 0.00 | 67 | 1011.1 |
| 20260506104518 | 5 | 298 | 0.0 | 3.2 | 0.00 | 0.03 | 0.00 | 67 | 1010.9 |
| 20260506104007 | 5 | 298 | 0.0 | 3.2 | 0.00 | 0.03 | 0.00 | 66 | 1011.0 |
| 20260506103506 | 5 | 298 | 0.0 | 3.2 | 0.00 | 0.03 | 0.00 | 65 | 1011.0 |
| 20260506103031 | 5 | 315 | 0.0 | 6.4 | 0.00 | 0.03 | 0.00 | 64 | 1010.8 |
| 20260506102508 | 5 | 316 | 1.6 | 6.4 | 0.00 | 0.03 | 0.00 | 62 | 1010.6 |
| 20260506102011 | 5 | 336 | 0.0 | 4.8 | 0.00 | 0.03 | 0.00 | 62 | 1010.6 |
| 20260506101537 | 6 | 287 | 1.6 | 4.8 | 0.00 | 0.03 | 0.00 | 62 | 1010.5 |
| 20260506101014 | 6 | 318 | 0.0 | 8.0 | 0.00 | 0.03 | 0.00 | 61 | 1010.5 |
| 20260506100507 | 6 | 325 | 1.6 | 8.0 | 0.00 | 0.03 | 0.00 | 61 | 1010.4 |
| 20260506100033 | 6 | 290 | 1.6 | 8.0 | 0.00 | 0.03 | 0.00 | 61 | 1010.5 |
| 20260506095511 | 6 | 294 | 4.8 | 8.0 | 0.00 | 0.03 | 0.00 | 60 | 1010.5 |
| 20260506095006 | 6 | 290 | 1.6 | 9.7 | 0.00 | 0.03 | 0.00 | 61 | 1010.5 |
| 20260506094516 | 6 | 306 | 1.6 | 11.3 | 0.00 | 0.03 | 0.00 | 61 | 1010.5 |
| 20260506094006 | 6 | 331 | 3.2 | 11.3 | 0.00 | 0.03 | 0.00 | 61 | 1010.7 |
| 20260506093507 | 6 | 304 | 3.2 | 8.0 | 0.00 | 0.03 | 0.00 | 60 | 1010.6 |
| 20260506093024 | 6 | 317 | 1.6 | 11.3 | 0.00 | 0.03 | 0.00 | 61 | 1010.7 |
| 20260506092509 | 6 | 333 | 3.2 | 11.3 | 0.00 | 0.03 | 0.00 | 61 | 1010.7 |
| 20260506092011 | 6 | 347 | 1.6 | 6.4 | 0.00 | 0.03 | 0.00 | 61 | 1010.6 |
| 20260506091510 | 6 | 316 | 3.2 | 8.0 | 0.00 | 0.03 | 0.00 | 62 | 1010.4 |
| 20260506091004 | 6 | 17 | 1.6 | 8.0 | 0.00 | 0.03 | 0.00 | 61 | 1010.1 |
| 20260506090502 | 7 | 333 | 1.6 | 11.3 | 0.00 | 0.03 | 0.00 | 61 | 1010.1 |
| 20260506090007 | 7 | 299 | 4.8 | 11.3 | 0.00 | 0.03 | 0.00 | 61 | 1010.0 |
| 20260506085503 | 7 | 300 | 3.2 | 8.0 | 0.00 | 0.03 | 0.00 | 61 | 1010.1 |
| 20260506085010 | 7 | 299 | 1.6 | 12.9 | 0.00 | 0.03 | 0.00 | 61 | 1010.0 |
| 20260506084523 | 7 | 306 | 3.2 | 12.9 | 0.00 | 0.03 | 0.00 | 61 | 1009.9 |
| 20260506084007 | 7 | 320 | 4.8 | 12.9 | 0.00 | 0.03 | 0.00 | 61 | 1009.9 |
| 20260506083510 | 7 | 318 | 1.6 | 14.5 | 0.00 | 0.03 | 0.00 | 61 | 1009.7 |
| 20260506083025 | 7 | 339 | 4.8 | 14.5 | 0.00 | 0.03 | 0.00 | 60 | 1009.7 |
| 20260506082508 | 7 | 350 | 4.8 | 12.9 | 0.00 | 0.03 | 0.00 | 60 | 1009.9 |
| 20260506082007 | 7 | 286 | 4.8 | 12.9 | 0.00 | 0.03 | 0.00 | 60 | 1010.0 |
| 20260506081527 | 7 | 316 | 6.4 | 12.9 | 0.00 | 0.03 | 0.00 | 60 | 1009.9 |
| 20260506081010 | 7 | 360 | 4.8 | 14.5 | 0.00 | 0.03 | 0.00 | 61 | 1009.8 |
| 20260506080504 | 7 | 17 | 3.2 | 14.5 | 0.00 | 0.03 | 0.00 | 60 | 1009.8 |